Regional Weather Roundup
Issued by NWS

Home | Current Version | Previous Version | Graphics & Text | Print | Product List | Glossary On
Versions: 1 2 3 4 5 6 7 8 9 10 11 12 13 14 15 16 17 18 19 20 21 22 23 24 25 26 27 28 29 30 31 32 33 34 35 36 37 38 39 40 41 42 43 44 45 46 47 48 49 50
257
ASUS43 KBIS 281110
RWRND

NORTH DAKOTA REGIONAL WEATHER ROUNDUP
NATIONAL WEATHER SERVICE BISMARCK ND
600 AM CDT TUE MAR 28 2017

NOTE: "FAIR" INDICATES FEW OR NO CLOUDS BELOW 12,000 FEET WITH NO
SIGNIFICANT WEATHER AND/OR OBSTRUCTIONS TO VISIBILITY.


NDZ001>003-009>011-017-281200-
NORTHWEST NORTH DAKOTA

CITY           SKY/WX    TMP DP  RH WIND       PRES   REMARKS
WILLISTON      CLOUDY    37  35  92 E9        30.03S
MINOT          CLOUDY    35  33  92 E12       30.08S
$$

NDZ018>021-031>035-040>046-281200-
SOUTHWEST NORTH DAKOTA

CITY           SKY/WX    TMP DP  RH WIND       PRES   REMARKS
BISMARCK       FAIR      33  30  88 NE7       30.06R
DICKINSON      FAIR      30  27  88 E3        29.99R
GARRISON         N/A     34  33  96 E12       30.05R
HETTINGER ARPT CLOUDY    29  27  92 CALM      30.01S
$$

NDZ004>008-012>016-024-026-027-054-281200-
NORTHEAST NORTH DAKOTA

CITY           SKY/WX    TMP DP  RH WIND       PRES   REMARKS
GRAND FORKS    CLOUDY    33  32  96 N8        30.12R
GRND FRKS AFB  CLOUDY    33  32  99 N8        30.12S
DEVILS LAKE    MOCLDY    33  31  92 NE6       30.12R
$$

NDZ022-023-025-028>030-036>039-047>053-281200-
SOUTHEAST NORTH DAKOTA

CITY           SKY/WX    TMP DP  RH WIND       PRES   REMARKS
FARGO          FOG       32  32 100 N6        30.10R VSB 1/4
JAMESTOWN      FOG       31  31 100 CALM      30.10R VSB 1/4
$$





USA.gov is the U.S. government's official web portal to all federal, state and local government web resources and services.